Starlink 33678

operational
NORAD ID: 63509 Int'l Des: 2025-071 Owner: SPXS Country: US Constellation: starlink
LEOCIRCULAR

关于 Starlink 33678

正在加载描述...

实时位置

正在加载3D地球...

即将过境

高度历史

Altitude vs Time

uPlot chart will show altitude changes over time

两行轨道根数

1 63509U 25071S 25257.36894099 .00028909 00000-0 98391-3 0 9998
2 63509 53.1559 238.9308 0001103 84.1839 275.9287 15.30215862 25509
Epoch: Sep 14, 2025 • Age: 25 hours

当前状态

高度 485.6 km
速度 7.62 km/s
星下点 -32.63°S, 64.74°E
发射日期 Apr 7, 2025
运行时间 0.4 years
类型 internet

技术详情

分类 Payload
质量 575.00 kg
干质量 530.00 kg
总质量 575.00 kg
长度 0.30 m
直径 4.10 m
跨度 29.00 m
形状 Box + pan
制造商 SPXS
平台类型 Starlink V2MO
阶段状态 In Orbit
所有者/国家 SPXS/US

大型星座

Loading constellations...